Regional Weather Roundup
Issued by NWS Newport/Morehead, NC

Current Version | Previous Version | Graphics & Text | Print | Product List | Glossary Off
Versions: 1 2 3 4 5 6 7 8 9 10 11 12 13 14 15 16 17 18 19 20 21 22 23 24 25 26 27 28 29 30 31 32 33 34 35 36 37 38 39 40 41 42 43 44 45 46 47 48 49 50

000
ASUS42 KMHX 202212
RWRMHX
WEATHER ROUNDUP FOR EASTERN NORTH CAROLINA
NATIONAL WEATHER SERVICE NEWPORT/MOREHEAD CITY NC
600 PM EDT MON APR 20 2015

NOTE: "FAIR" INDICATES FEW OR NO CLOUDS BELOW 12,000 FEET
WITH NO SIGNIFICANT WEATHER AND/OR OBSTRUCTIONS TO VISIBILITY

NCZ015>017-031-032-045>047-102-103-202300-
NORTH COAST

CITY           SKY/WX    TMP DP  RH WIND       PRES   REMARKS
EDENTON        CLOUDY    76  63  63 S10       29.67F
ELIZABETH CITY CLOUDY    76  62  62 S8        29.67S
KITTY HAWK     CLOUDY    73  66  77 S7        29.69R
MANTEO         CLOUDY    73  65  75 SW22      29.71R

$$

NCZ045>047-081-094-103-104-202300-
CENTRAL COAST

CITY           SKY/WX    TMP DP  RH WIND       PRES   REMARKS
FRISCO         CLOUDY    67  64  90 SW13G21   29.75S
SWANQUARTER      N/A     72 N/A N/A S17G24    29.68S

$$

NCZ095-097-098-100-101-202300-
SOUTHERN COAST

CITY           SKY/WX    TMP DP  RH WIND       PRES   REMARKS
BEAUFORT       CLOUDY    68  65  90 SW14      29.76R
CEDAR ISLAND     N/A     72 N/A N/A S16       29.77S
JACKSONVILLE   CLOUDY    73  63  70 S10       29.72S
PINEY ISLAND   CLOUDY   N/A N/A N/A S17G25    29.74S
WILMINGTON     CLOUDY    72  63  73 S13       29.73S


$$

NCZ011>013-027>030-043-044-078>080-089-090>093-098-202300-
COASTAL PLAIN

CITY           SKY/WX    TMP DP  RH WIND       PRES   REMARKS
AHOSKIE        CLOUDY    74  62  64 S7        29.65S
CLINTON        CLOUDY    75  64  70 S6        29.70S
ELIZABETHTOWN  CLOUDY    74  66  75 S6        29.72R
GOLDSBORO      CLOUDY    76  62  61 SW10G21   29.66S
GREENVILLE     CLOUDY    77  61  57 SW13      29.70F
HAVELOCK       CLOUDY    71  63  75 S9        29.74F
KENANSVILLE    CLOUDY    75  61  61 SW5       29.72R
KINSTON        CLOUDY    77  63  61 SW8       29.69F
NEW BERN       CLOUDY    75  64  68 S9        29.72F
RICHLANDS      CLOUDY    75  61  60 S10G20    29.71S
ROCKY MOUNT    CLOUDY    76  63  64 S13       29.66S
WASHINGTON     CLOUDY    77  58  52 SW8       29.68F
WHITEVILLE     CLOUDY    74  63  67 SW5       29.72R

$$

AMZ130-135-150-152-154-156-158-170-250-252-270-ANZ085-086-088-633-658-670-202300-
MARINE OBSERVATIONS

STATION/POSITION TIME  TEMP    WIND        PRES    WAVE   SWELL
                       AIR SEA DIR/SP/G            HT/PER HT/PER
                 (UTC) (F)     (DEG/KT/KT) (MB)    (FT/S) (FT/S)
CHESAPEAKE LIGHT 2200   63     180/ 19/ 20 1004.3
64 E VA BEACH    2150   60 56  190/ 14/ 16 1005.1    8/ 8   7/ 8
DUCK             2100   75 49  200/ 13/ 17 1004.1
2 E DUCK         2111      55                N/A     5/ 8   2/11
10 NE DUCK       NOT AVBL
OREGON INLET     2100   69 67  180/ 15/ 17 1005.9
HATTERAS CG      2100   70 68  210/ 12/ 15 1006.8
DIAMOND BUOY     2150   72 73  210/ 17/ 21 1007.5    6/ 7   3/ 7
CAPE LOOKOUT     2200   68     200/ 10/ 14 1007.6
BEAUFORT LAB     2100   68 68  210/ 12/ 17 1006.6
27 SE WRIGHTSVLE 2100   67 71  220/ 14/ 16   N/A
5 SE WRIGHTSVLE  2100   67 65  200/ 16/ 17 1007.3
225 S CAPE HAT   2150   74 73  210/ 16/ 19 1011.5    4/14   2/14
41 SE CHARLESTON 2150   72 74  210/ 19/ 23 1007.5    4/ 5   2/ 8

$$



USA.gov is the U.S. government's official web portal to all federal, state and local government web resources and services.